Change the Weather History Date:

Monday, June 24, 2013

  Actual Average Record
Temperature  
Mean Temperature 77 °F 74 °F  
Max Temperature 87 °F 86 °F 105 °F (1973)
Min Temperature 66 °F 63 °F 42 °F (1940)
Degree Days  
Heating Degree Days 0 0  
Month to date heating degree days 27 19  
Since 1 June heating degree days 27 19  
Since 1 July heating degree days 6326 6027  
Cooling Degree Days 12 10  
Month to date cooling degree days 170 163  
Year to date cooling degree days 244 222  
Since 1 June cooling degree days 170 163  
Growing Degree Days 26 (Base 50)    
Moisture  
Dew Point 65 °F    
Average Humidity 73    
Maximum Humidity 97    
Minimum Humidity 48    
Precipitation  
Precipitation 0.32 in 0.12 in 4.20 in (1968)
Month to date precipitation 1.21 3.15  
Year to date precipitation 13.01 12.97  
Snow  
Snow 0.00 in 0.00 in - ()
Month to date snowfall 0.0 0.0  
Since 1 June snowfall 0.0 0.0  
Since 1 July snowfall 35.7 28.8  
Snow Depth 0.00 in    
Sea Level Pressure  
Sea Level Pressure 29.77 in    
Wind  
Wind Speed 10 mph (SE)    
Max Wind Speed 21 mph    
Max Gust Speed 28 mph    
Visibility 10 miles    
Events Rain , Thunderstorm    
T = Trace of Precipitation, MM = Missing Value Source: NWS Daily Summary

Daily Weather History Graph

Daily Weather History Graph

Search for Another Location

Airport or City:

Trip Planner

Search our weather history database for the weather conditions in past years. The results will help you decide how hot, cold, wet, or windy it might be!

Date:

Astronomy

Jun. 24, 2013 Rise Set
Actual Time 6:03 AM CDT 9:08 PM CDT
Civil Twilight 5:30 AM CDT 9:41 PM CDT
Nautical Twilight 4:48 AM CDT 10:24 PM CDT
Astronomical Twilight 3:58 AM CDT 11:14 PM CDT
Moon 10:11 PM CDT (6/24) 7:33 AM CDT (6/24)
Length of Visible Light 16h 11m
Length of Day
15h 04m
Full, 98% of the Moon is Illuminated
Jun 24
Full
Jun 29
Last Quarter
Jul 8
New
Jul 15
First Quarter
Jul 22
Full

Hourly Weather History & Observations

Time (CDT) Temp. Heat Index Dew Point Humidity Pressure Visibility Wind Dir Wind Speed Gust Speed Precip Events Conditions
12:53 AM 71.1 °F - 66.9 °F 87% 29.82 in 10.0 mi East 10.4 mph - N/A   Clear
1:53 AM 70.0 °F - 68.0 °F 93% 29.79 in 7.0 mi East 6.9 mph - N/A   Clear
2:53 AM 71.1 °F - 66.9 °F 87% 29.78 in 10.0 mi SE 8.1 mph - N/A   Partly Cloudy
3:53 AM 72.0 °F - 66.0 °F 81% 29.79 in 10.0 mi SSE 6.9 mph - N/A   Clear
4:53 AM 73.0 °F - 64.9 °F 76% 29.85 in 10.0 mi SW 6.9 mph 19.6 mph N/A Thunderstorm Mostly Cloudy
5:37 AM 66.2 °F - 62.6 °F 88% 29.87 in 2.5 mi North 6.9 mph - 0.14 in Rain , Thunderstorm Light Thunderstorms and Rain
5:45 AM 66.2 °F - 62.6 °F 88% 29.86 in 10.0 mi NNE 8.1 mph - 0.14 in Thunderstorm Mostly Cloudy
5:53 AM 66.9 °F - 63.0 °F 87% 29.81 in 10.0 mi NE 4.6 mph - 0.14 in Thunderstorm Scattered Clouds
6:09 AM 66.2 °F - 62.6 °F 88% 29.88 in 10.0 mi NNW 3.5 mph - N/A   Mostly Cloudy
6:16 AM 66.2 °F - 64.4 °F 94% 29.89 in 10.0 mi WNW 4.6 mph - N/A Thunderstorm Mostly Cloudy
6:37 AM 66.2 °F - 64.4 °F 94% 29.87 in 10.0 mi NNW 3.5 mph - 0.00 in Rain , Thunderstorm Light Rain
6:53 AM 66.9 °F - 64.0 °F 90% 29.82 in 10.0 mi NNE 4.6 mph - 0.01 in Rain , Thunderstorm Light Rain
7:46 AM 66.2 °F - 62.6 °F 88% 29.85 in 10.0 mi ESE 10.4 mph - 0.05 in   Partly Cloudy
7:53 AM 66.9 °F - 63.0 °F 87% 29.84 in 8.0 mi SE 5.8 mph - 0.07 in Thunderstorm Thunderstorm
8:25 AM 66.2 °F - 64.4 °F 94% 29.80 in 7.0 mi ESE 9.2 mph - 0.10 in   Scattered Clouds
8:53 AM 68.0 °F - 64.9 °F 90% 29.75 in 10.0 mi SE 10.4 mph - 0.10 in   Clear
9:53 AM 70.0 °F - 66.0 °F 87% 29.76 in 10.0 mi SSE 12.7 mph 19.6 mph N/A   Clear
10:53 AM 73.0 °F - 66.0 °F 79% 29.75 in 10.0 mi South 13.8 mph 25.3 mph N/A   Clear
11:53 AM 77.0 °F - 66.0 °F 69% 29.78 in 10.0 mi South 16.1 mph 23.0 mph N/A   Clear
12:53 PM 80.1 °F 82.1 °F 66.0 °F 62% 29.76 in 10.0 mi South 13.8 mph 21.9 mph N/A   Clear
1:53 PM 82.0 °F 84.1 °F 66.0 °F 58% 29.75 in 10.0 mi South 15.0 mph 23.0 mph N/A   Clear
2:53 PM 84.0 °F 85.4 °F 64.0 °F 51% 29.71 in 10.0 mi South 10.4 mph 19.6 mph N/A   Clear
3:53 PM 84.9 °F 86.1 °F 64.0 °F 49% 29.71 in 10.0 mi South 11.5 mph - N/A   Clear
4:53 PM 86.0 °F 87.6 °F 64.9 °F 49% 29.69 in 10.0 mi South 16.1 mph 25.3 mph N/A   Clear
5:53 PM 86.0 °F 87.3 °F 64.0 °F 48% 29.68 in 10.0 mi SSE 11.5 mph 21.9 mph N/A   Clear
6:53 PM 86.0 °F 87.3 °F 64.0 °F 48% 29.67 in 10.0 mi South 12.7 mph 23.0 mph N/A   Scattered Clouds
7:53 PM 82.9 °F 84.4 °F 64.0 °F 53% 29.66 in 10.0 mi SSE 9.2 mph - N/A   Clear
8:53 PM 80.1 °F 82.1 °F 66.0 °F 62% 29.65 in 10.0 mi SE 11.5 mph - N/A   Clear
9:53 PM 80.1 °F 81.7 °F 64.0 °F 58% 29.65 in 10.0 mi SSE 12.7 mph - N/A   Clear
10:53 PM 79.0 °F - 64.0 °F 60% 29.66 in 10.0 mi South 11.5 mph - N/A   Clear
11:53 PM 77.0 °F - 64.0 °F 64% 29.64 in 10.0 mi South 9.2 mph - N/A   Clear